[ hide orbit diagram ]
For accurate long-term ephemerides, please instead use our Horizons system.This orbit viewer was implemented using two-body methods, and hence should not be used for determining accurate long-term trajectories (over several years or decades) or planetary encounter circumstances.
Orbital Elements at Epoch 2459200.5 (2020-Dec-17.0) TDB
Reference: JPL 35 (heliocentric ecliptic J2000)
Element | Value | Uncertainty (1-sigma) | Units |
e | .1618846698712483 | 2.1964e-08 | |
a | 2.262187744255766 | 7.0326e-09 | au |
q | 1.895974228090138 | 5.0964e-08 | au |
i | 8.304932604409656 | 8.7745e-07 | deg |
node | 312.311433881792 | 2.6101e-06 | deg |
peri | 17.95879001634281 | 3.4222e-06 | deg |
M | 307.9696180073537 | 4.8858e-06 | deg |
tp | 2459380.116367153549 (2021-Jun-14.61636715) | 1.7573e-05 | TDB |
period | 1242.771813292024 3.40 | 5.7952e-06 1.587e-08 | d yr |
n | .2896750603366057 | 1.3508e-09 | deg/d |
Q | 2.628401260421395 | 8.1711e-09 | au |
|
| | Orbit Determination Parameters
Additional Information
|
[ hide covariance matrix ]
Orbital Elements at Epoch 2457040.5 (2015-Jan-18.0) TDB
Reference: JPL 35 (heliocentric ecliptic J2000)
Element | Value | Uncertainty (1-sigma) | Units |
e | .1621082094971829 | 2.2052e-08 | |
q | 1.895321846762509 | 5.1155e-08 | au |
tp | 2456893.196693903356 (2014-Aug-23.69669390) | 9.7023e-06 | TDB |
node | 312.3849998548227 | 2.6077e-06 | deg |
peri | 17.59877419423289 | 3.3986e-06 | deg |
i | 8.311766639516124 | 8.78e-07 | deg |
|
| | Orbit Determination Parameters
Additional Information
|
Orbit Covariance (6×6)
|
|
e |
q |
tp |
node |
peri |
i |
e |
4.862698986077496E-16 |
-1.120599655873735E-15 |
-1.992926374888612E-14 |
5.144806927632804E-15 |
-2.907462213761512E-14 |
2.922202977803769E-15 |
q |
-1.120599655873735E-15 |
2.61681527168001E-15 |
6.42948757884343E-14 |
-1.159730690636502E-14 |
7.380017862885295E-14 |
-6.910045343969709E-15 |
tp |
-1.992926374888612E-14 |
6.42948757884343E-14 |
9.413498758081064E-11 |
7.136899836592477E-12 |
1.89970257176931E-11 |
-4.420984462986998E-12 |
node |
5.144806927632804E-15 |
-1.159730690636502E-14 |
7.136899836592477E-12 |
6.800115695736612E-12 |
-4.942330778882045E-12 |
-3.510111912543153E-13 |
peri |
-2.907462213761512E-14 |
7.380017862885295E-14 |
1.89970257176931E-11 |
-4.942330778882045E-12 |
1.155079192351456E-11 |
-8.248835953452709E-13 |
i |
2.922202977803769E-15 |
-6.910045343969709E-15 |
-4.420984462986998E-12 |
-3.510111912543153E-13 |
-8.248835953452709E-13 |
7.708857235604477E-13 |
|
Physical Parameter Table
Parameter |
Symbol |
Value |
Units |
Sigma |
Reference |
Notes |
absolute magnitude |
H |
14.08 |
|
n/a |
E2021B10 |
|
diameter |
diameter |
3.429 |
km |
0.242 |
urn:nasa:pds:neowise_diameters_albedos::2.0[mainbelt] (http://adsabs.harvard.edu/abs/2011ApJ...741...68M) |
|
geometric albedo |
albedo |
0.314 |
|
0.094 |
urn:nasa:pds:neowise_diameters_albedos::2.0[mainbelt] (http://adsabs.harvard.edu/abs/2011ApJ...741...68M) |
|
|
7860 Zahnle | Discovered 1980 Aug. 6 by E. Bowell at the Anderson Mesa Station of the Lowell Observatory. |
Named in honor of Kevin J. Zahnle (b. 1955), senior research scientist at NASA Ames Research Center, for many fundamental contributions to understanding the physical nature and size-frequency distributions of minor planets and comets and the implications of their impacts with planets. Zahnle's research has elucidated the physics of atmospheric entry and thus identified the Tunguska object as a stony object, provided critical predictions of the phenomena observed in the 1994 cometary impacts with Jupiter and quantified the expected environmental effects from earth impacts of NEOs over a wide energy range, leading to a determination of the threshold energy for global impact catastrophe. Name suggested and citation provided by D. Morrison. |
NOTE: some special characters may not display properly (any characters within {} are an attempt to place the proper accent above a character) |
Reference: 19990728/MPCPages.arc | Last Updated: 2010-06-11 |
|
|